Tracking 21472 objects as of 22-Sep-2020
HD Live streaming from Space Station
objects crossing your sky now

STARLINK-1516

Track STARLINK-1516 now!
10-day predictions
STARLINK-1516 is classified as:


NORAD ID: 45749
Int'l Code: 2020-038V
Perigee: 381.5 km
Apogee: 384.6 km
Inclination: 53.0 °
Period: 92.1 minutes
Semi major axis: 6754 km
RCS: Unknown
Launch date: June 13, 2020
Source: United States (US)
Launch site: AIR FORCE EASTERN TEST RANGE (AFETR)
aabbcc
Your satellite tracking list
Your tracking list is empty




NASA's NSSDC Master Catalog

Two Line Element Set (TLE):
1 45749U 20038V   20265.58334491 +.00051395 +00000-0 +53491-3 0  9992
2 45749 052.9991 165.7958 0002297 085.5756 170.8631 15.64084726001812
Source of the keplerian elements: AFSPC